IISEREFA2 Weather Reports


Display with metric or nautical units.
time (UTC)temp
F
wind
direction
speed
MPH
gust
MPH
rain 1hr
in
rain 24hr
in
rain mn
in
humidity
%
barometer
mb
20260506174529 56 0 0.0 0.0 0.00 0.88 0.72 81 1010.5
20260506173040 57 0 0.0 2.0 0.00 0.88 0.72 75 1010.2
20260506171532 58 196 0.0 1.0 0.00 0.88 0.72 75 1010.0
20260506170036 57 0 0.0 2.0 0.00 0.88 0.72 77 1009.9
20260506164533 56 0 0.0 2.0 0.00 0.88 0.72 78 1009.9
20260506163036 56 0 0.0 0.0 0.00 0.88 0.72 78 1009.9
20260506161532 56 0 0.0 1.0 0.00 0.88 0.72 78 1010.0
20260506160032 56 0 0.0 4.0 0.00 0.88 0.72 75 1010.0
20260506154532 58 0 1.0 5.0 0.00 0.88 0.72 72 1010.1
20260506153030 58 198 2.0 6.0 0.00 0.88 0.72 73 1010.1
20260506151531 59 0 1.0 5.0 0.00 0.88 0.72 76 1010.3
20260506150030 58 206 2.0 6.0 0.00 0.88 0.72 79 1010.4
20260506144534 56 214 0.0 3.0 0.00 0.88 0.72 83 1010.5
20260506143033 55 215 1.0 4.0 0.00 0.88 0.72 82 1010.9
20260506141533 55 0 0.0 3.0 0.00 0.88 0.72 84 1011.1
20260506140032 54 215 0.0 3.0 0.00 0.88 0.72 84 1011.2
20260506134532 54 215 0.0 3.0 0.00 0.88 0.72 86 1011.1
20260506133032 54 0 0.0 3.0 0.02 0.88 0.72 86 1011.2
20260506131544 54 215 0.0 3.0 0.02 0.88 0.72 84 1011.3
20260506130037 53 0 0.0 0.0 0.02 0.88 0.72 86 1011.5
20260506124529 54 0 0.0 2.0 0.01 0.87 0.71 83 1011.3
20260506123031 56 215 0.0 2.0 0.00 0.85 0.70 78 1011.1
20260506121530 56 0 0.0 4.0 0.00 0.85 0.70 73 1011.1
20260506120033 58 0 1.0 4.0 0.00 0.85 0.70 72 1011.0
20260506114534 56 215 0.0 3.0 0.00 0.85 0.70 72 1010.9
20260506113030 55 0 1.0 3.0 0.00 0.85 0.70 75 1011.0
20260506111531 56 215 1.0 4.0 0.00 0.85 0.70 75 1011.0
20260506110033 56 0 1.0 4.0 0.00 0.85 0.70 76 1011.3
20260506104533 55 215 1.0 4.0 0.00 0.85 0.70 77 1011.5
20260506103038 55 0 0.0 4.0 0.00 0.85 0.70 80 1011.6
20260506101543 56 215 0.0 6.0 0.00 0.85 0.70 82 1011.7
20260506100037 54 0 0.0 3.0 0.00 0.85 0.70 85 1011.4
20260506094533 53 0 0.0 4.0 0.00 0.85 0.70 85 1011.3
20260506093039 52 0 0.0 3.0 0.00 0.85 0.70 91 1011.0
20260506091534 51 213 1.0 6.0 0.00 0.85 0.69 88 1011.0
20260506090031 52 211 0.0 5.0 0.00 0.85 0.69 91 1010.8
20260506084529 53 211 1.0 7.0 0.00 0.96 0.69 94 1010.6
20260506083033 52 197 0.0 5.0 0.00 0.96 0.69 96 1010.2
20260506081541 50 196 2.0 7.0 0.00 0.96 0.69 97 1010.1
20260506073130 50 188 2.0 6.0 0.02 1.11 0.69 97 1009.6
20260506034558 49 0 0.0 0.0 0.15 1.26 0.49 97 1007.9
20260506033035 49 0 0.0 0.0 0.12 1.21 0.44 96 1007.9
20260506031531 49 0 0.0 0.0 0.10 1.17 0.40 96 1008.0
20260506030032 50 0 0.0 0.0 0.09 1.14 0.37 96 1008.0
20260506024532 50 0 0.0 0.0 0.07 1.18 0.33 96 1008.1
20260506023035 50 0 0.0 0.0 0.06 1.15 0.31 96 1008.2
20260506021534 50 0 0.0 0.0 0.05 1.14 0.29 96 1008.3
20260506020030 50 0 0.0 0.0 0.05 1.11 0.27 96 1008.3
20260506014532 50 0 0.0 0.0 0.03 1.20 0.25 96 1008.2
20260506013033 49 0 0.0 0.0 0.03 1.19 0.25 96 1008.3
20260506011533 50 0 0.0 0.0 0.03 1.18 0.24 96 1008.6
20260506010035 50 0 0.0 0.0 0.00 1.16 0.22 96 1008.9
20260506004556 50 0 0.0 0.0 0.00 1.24 0.22 96 1009.2
20260506003041 49 0 0.0 0.0 0.01 1.23 0.21 96 1009.1
20260506001530 49 0 0.0 0.0 0.06 1.23 0.21 96 1009.4
20260506000031 50 0 0.0 1.0 0.07 1.23 0.21 96 1009.5
20260505234549 50 0 0.0 0.0 0.10 1.34 0.21 96 1009.8
20260505233036 50 0 0.0 2.0 0.10 1.33 0.19 96 1010.0
20260505231532 50 0 0.0 2.0 0.11 1.28 0.14 96 1010.3
20260505230040 50 0 0.0 2.0 0.12 1.25 0.12 96 1010.4
20260505224536 50 184 0.0 2.0 0.12 1.31 0.11 96 1010.6
20260505223031 50 0 0.0 3.0 0.11 1.29 0.09 95 1010.6
20260505221530 51 0 0.0 1.0 0.04 1.23 0.03 95 1010.9
20260505220043 51 0 0.0 3.0 0.01 1.20 0.00 95 1011.2
20260505214537 50 0 0.0 1.0 0.00 1.26 1.18 95 1011.2
20260505213031 50 0 0.0 0.0 0.00 1.26 1.18 95 1011.4
20260505211530 51 0 0.0 2.0 0.00 1.26 1.18 95 1011.5
20260505210030 51 0 0.0 0.0 0.00 1.26 1.18 95 1011.7
20260505204535 51 0 0.0 0.0 0.00 1.32 1.18 95 1011.7
20260505203030 51 0 0.0 0.0 0.00 1.32 1.18 94 1011.7
20260505201531 51 0 1.0 4.0 0.00 1.32 1.18 94 1011.5
20260505200030 51 0 0.0 2.0 0.03 1.32 1.18 93 1011.2
20260505194537 51 0 0.0 2.0 0.12 1.33 1.18 93 1010.8
20260505193039 51 0 0.0 1.0 0.13 1.33 1.18 92 1010.6
20260505191547 52 0 0.0 4.0 0.13 1.33 1.18 91 1010.6
20260505190031 53 183 3.0 11.0 0.07 1.28 1.12 90 1010.8
20260505184533 54 196 3.0 8.0 0.00 1.25 1.05 88 1010.0
20260505183030 55 180 2.0 6.0 0.00 1.24 1.04 83 1009.3
20260505181531 56 0 1.0 6.0 0.00 1.24 1.04 77 1009.2
20260505180042 56 0 2.0 7.0 0.00 1.24 1.04 77 1009.2